Location: ????
(30.1475°N, 31.1342°E)
Time: 07:16:36
(UTC+00:00)

Meteor 1-14 Rocket - Pass Details

Date: 01 April 2023
Orbit: 834 x 918 km, 81.3° (Epoch: 03 June)

Event Time Altitude Azimuth Distance (km) Brightness Sun altitude
Rises 01:54:23 0° 346° (NNW) 3,392 7.4 -24.2°
Reaches altitude 10° 01:56:50 10° 342° (NNW) 2,461 6.6 -23.7°
Maximum altitude 02:02:15 55° 266° (W) 1,015 4.2 -22.6°
Enters shadow 02:03:43 43° 218° (SW) 1,188 4.5 -22.3°
